Theta_e
333 334 336 335 335 337 336 335 335 334 335 334 333 333 333 335 336 335 335 336 336 335 335 336 336 336 336 338 339 337 336 338 338 338 339 339 337 337 335 335 334 333
332 337 336 335 337 336 336 336 336 334 334 334 333 333 334 335 336 335 335 334 335 335 336 336 336 336 335 337 339 338 336 337 337 337 338 338 337 337 337 336 337 336
335 337 336 336 336 334 334 335 336 334 333 333 335 335 334 336 335 334 334 334 333 333 336 336 336 335 334 333 337 339 336 337 337 337 337 335 336 336 337 338 337 337
335 338 335 337 335 334 335 333 333 333 333 332 332 332 333 335 334 334 334 333 333 333 334 335 335 335 334 334 334 334 337 337 336 337 336 337 337 336 336 337 336 336
337 337 335 335 334 334 334 332 331 331 330 330 333 334 332 333 332 331 332 332 333 332 333 333 333 334 334 334 333 334 338 336 338 337 335 335 336 336 337 336 336 335
339 336 335 333 335 334 332 331 331 331 331 332 332 331 331 331 330 330 331 331 331 331 331 332 332 332 333 333 335 337 336 335 336 336 335 334 334 336 335 336 335 334
339 337 335 334 334 334 332 332 332 333 333 333 331 331 331 330 329 329 329 329 329 328 329 330 331 332 333 333 335 336 335 336 335 334 331 329 331 332 331 335 334 333
339 338 336 335 334 333 332 332 332 332 333 332 331 331 330 328 329 330 330 329 328 327 328 329 330 331 332 333 331 334 335 336 334 330 328 326 328 327 330 331 335 333
338 338 335 336 334 333 332 330 331 332 332 331 329 329 330 329 330 330 329 329 328 327 327 329 329 328 331 330 330 330 330 332 332 330 327 327 327 325 324 328 332 333
337 336 336 335 333 331 331 331 331 331 331 330 330 330 329 330 330 329 328 329 328 326 326 327 328 329 329 328 328 327 327 329 330 328 327 326 325 323 322 324 325 327
335 335 335 335 333 331 331 332 331 331 331 329 330 329 329 329 328 328 328 327 328 325 324 325 326 326 326 327 327 327 326 326 325 323 325 325 325 323 324 323 324 324
329 331 333 333 332 331 331 331 331 331 330 330 329 328 329 328 327 326 324 324 325 325 323 324 324 325 324 324 325 326 326 325 324 324 323 324 324 322 322 324 324 323
323 324 327 330 331 330 331 330 330 331 330 329 329 329 328 326 325 325 325 324 325 325 323 323 323 323 324 324 324 325 325 324 324 324 323 324 323 322 322 322 322 322
320 322 324 324 326 329 330 329 330 330 329 329 329 328 326 324 324 323 323 323 323 323 324 324 323 322 323 323 323 323 324 324 324 324 323 323 324 323 323 323 323 324
323 323 323 323 323 325 326 327 328 328 329 329 328 326 325 324 323 321 320 320 320 322 321 321 322 322 321 323 322 321 322 323 323 322 323 323 323 323 324 323 323 324
322 323 324 324 324 324 324 324 325 326 326 326 325 325 324 322 321 320 319 319 319 320 322 323 324 323 305 298 303 321 322 320 322 322 321 322 323 324 323 323 323 323
321 322 323 321 321 321 321 321 323 325 324 324 325 324 324 323 321 320 319 319 319 319 321 324 320 308 293 293 295 299 316 323 321 321 321 319 320 323 322 322 323 321
316 314 314 315 317 317 317 317 317 318 320 323 324 324 324 325 324 322 322 323 324 324 322 319 313 296 292 293 293 293 299 320 322 322 321 321 320 319 320 321 322 323
312 311 310 310 311 313 315 315 315 315 316 317 319 323 325 325 324 324 325 325 322 320 317 315 310 293 293 292 293 293 292 303 321 321 320 320 322 322 322 323 323 323
311 309 308 308 310 311 311 311 310 311 313 315 317 320 322 323 324 323 321 319 318 315 311 309 305 295 292 292 293 291 291 297 323 322 321 321 321 321 322 323 323 323
306 306 306 306 307 306 306 306 308 310 309 311 313 315 316 318 318 318 317 316 314 312 309 306 302 291 292 291 292 292 292 296 326 324 323 323 324 324 324 323 324 323
307 306 306 306 306 307 306 306 306 307 307 307 309 311 313 312 311 312 313 314 313 311 308 305 302 291 291 292 292 292 293 321 324 325 324 324 325 326 325 325 325 326
304 304 303 304 305 305 304 304 304 305 306 307 306 307 306 307 307 308 309 310 311 311 309 306 304 295 291 291 292 291 305 322 323 321 322 324 325 326 326 327 329 328
304 303 303 304 305 304 305 305 306 306 305 306 306 306 305 305 305 305 305 306 307 309 310 308 304 296 291 291 292 291 299 317 317 319 320 320 321 323 323 324 318 307
304 304 303 304 304 304 305 305 306 306 307 308 307 306 305 305 304 304 304 305 305 306 304 308 307 300 291 291 291 291 301 314 313 315 316 316 316 317 319 320 322 312
301 301 301 303 304 304 304 303 304 305 306 307 306 306 305 304 304 305 304 304 305 306 306 307 307 305 297 290 291 292 291 306 311 310 311 310 312 312 313 316 317 318
Wind_Speed
9 9 9 8 7 7 8 8 7 8 7 7 7 7 7 7 8 8 7 6 6 5 5 5 6 6 6 6 5 5 5 6 5 5 6 5 5 6 6 7 6 5
12 9 8 8 7 7 7 7 8 8 8 8 7 7 7 7 7 6 6 5 5 6 6 6 6 7 7 7 6 5 5 5 6 5 5 6 5 6 6 7 7 6
10 10 10 9 8 9 9 8 8 8 8 7 7 7 6 6 6 5 5 6 6 6 6 7 7 7 7 7 7 6 6 6 6 5 5 6 5 5 6 7 7 8
13 12 10 9 10 10 9 9 9 8 8 7 7 7 7 6 6 7 6 6 6 6 6 7 7 7 6 6 6 5 5 6 6 5 5 5 5 5 6 7 7 8
14 11 10 10 11 11 9 10 10 9 9 8 8 8 8 8 8 7 6 6 5 6 5 6 6 6 6 5 5 5 5 6 6 6 6 6 5 5 6 7 7 8
11 11 10 11 11 11 10 11 10 10 10 9 9 8 8 9 8 8 7 6 5 5 5 5 5 5 5 5 5 5 6 6 6 6 6 7 7 7 6 7 8 8
11 11 11 11 12 12 11 11 10 10 9 9 8 8 8 8 8 8 7 6 6 6 5 5 5 5 5 5 5 6 6 5 6 7 7 6 6 7 6 7 8 8
11 11 11 10 12 12 11 11 10 9 9 9 9 8 8 8 9 7 6 7 6 6 5 5 6 6 6 6 6 6 6 4 5 6 6 6 5 7 7 6 6 7
10 10 11 12 13 11 11 11 10 10 9 9 9 8 8 8 8 7 7 7 7 6 5 5 5 5 5 6 6 6 6 6 5 5 6 6 7 7 7 7 7 6
9 9 11 11 12 11 11 11 10 10 9 9 9 8 8 7 7 7 7 6 7 6 6 6 6 5 5 5 6 6 6 6 6 5 5 6 7 6 6 6 6 6
8 8 9 10 10 10 12 11 11 10 9 9 8 8 7 7 7 6 6 7 6 7 7 6 6 6 5 4 4 3 5 6 6 5 4 5 6 5 5 5 5 5
8 2 7 9 10 11 12 11 10 10 10 9 9 8 8 7 7 6 6 7 7 7 7 6 6 5 5 5 5 4 3 4 4 4 5 5 5 5 6 4 4 5
8 8 6 4 5 8 9 10 10 10 10 10 9 9 8 7 7 6 5 5 6 6 6 6 5 5 4 4 4 5 4 4 3 4 4 3 4 4 4 4 3 4
8 7 6 3 3 5 6 8 8 9 10 9 8 8 7 8 7 7 5 4 5 5 5 4 4 3 3 4 4 4 4 3 4 3 4 3 3 3 3 3 2 3
7 6 6 6 5 5 6 5 7 8 9 8 7 7 6 7 7 7 7 6 6 5 5 4 4 3 2 2 1 4 3 4 4 5 4 4 4 4 3 3 3 3
9 9 8 8 7 7 6 5 5 6 7 7 7 7 6 6 7 7 7 6 6 6 5 3 3 6 10 13 10 5 1 3 4 3 5 5 5 5 5 4 4 3
9 9 7 8 8 8 7 7 7 5 5 6 6 6 6 6 6 7 6 6 6 5 5 5 6 6 12 9 10 11 6 2 2 3 3 4 5 5 5 6 4 4
10 9 9 6 6 8 8 8 7 6 6 6 6 7 6 5 6 6 6 6 6 8 8 7 6 10 10 10 8 9 8 5 3 2 3 3 4 6 6 5 6 5
9 10 10 9 7 6 7 8 8 7 6 6 7 6 6 6 7 7 7 8 8 9 9 8 7 11 11 10 8 8 8 8 4 3 3 3 2 3 3 3 5 5
9 9 9 9 8 6 6 8 9 7 5 5 6 6 7 7 8 9 9 9 9 10 10 9 9 11 11 10 9 9 7 5 4 1 2 1 2 2 2 3 3 4
10 10 9 8 8 7 8 9 8 7 6 5 7 6 6 7 7 8 8 9 9 9 9 9 7 10 11 11 11 9 8 8 1 1 2 2 1 1 2 2 3 2
9 10 9 8 8 7 8 9 8 6 6 5 7 6 6 7 8 8 9 9 9 9 9 9 8 11 11 12 12 11 9 5 1 2 1 1 2 1 2 2 2 2
8 8 9 9 8 9 10 9 7 7 7 6 8 8 7 7 7 8 7 7 8 8 8 8 8 9 11 12 12 13 9 3 2 1 1 0 0 0 2 0 0 2
7 8 8 8 8 9 8 7 6 6 6 5 7 8 8 8 7 8 8 7 7 7 6 7 8 8 10 11 12 13 10 3 1 1 1 2 1 1 2 2 5 9
8 8 8 8 8 8 7 7 6 5 4 4 5 7 7 7 7 7 6 6 6 6 6 6 6 7 9 10 11 12 9 3 2 1 1 1 2 1 1 3 4 7
9 9 8 8 8 8 7 6 5 5 5 4 4 4 5 6 5 5 6 5 5 5 5 5 5 5 8 9 12 12 13 8 2 2 1 1 2 2 3 2 1 5
Wind_Direction
218 203 174 171 153 142 148 150 155 158 165 166 164 163 163 156 159 165 163 160 168 171 167 163 176 179 172 171 177 180 186 180 195 192 193 198 200 195 197 200 202 215
217 195 180 165 142 141 137 145 154 160 160 161 156 153 147 147 155 156 156 159 170 176 171 174 179 179 174 174 171 186 183 172 192 185 188 194 195 191 197 194 197 207
209 191 177 158 139 134 141 150 155 156 151 146 140 144 139 143 150 156 159 170 172 168 173 175 179 179 177 174 167 180 182 179 193 180 195 188 198 196 191 190 199 193
205 187 169 150 140 141 148 152 152 151 145 145 151 148 151 154 159 159 159 167 164 167 167 172 176 179 180 172 175 180 178 180 185 178 190 184 185 193 184 192 192 190
191 177 167 156 150 152 155 155 156 152 156 155 154 158 158 158 163 159 159 162 160 162 166 171 177 178 182 182 190 176 179 182 174 186 187 183 184 182 178 187 186 189
175 173 167 158 153 156 160 162 160 160 161 160 159 162 160 162 163 156 160 164 162 158 163 167 175 178 185 182 184 180 183 185 177 189 189 189 181 180 177 181 179 186
171 170 166 157 154 161 165 163 163 163 163 160 157 159 158 162 160 158 159 163 161 163 163 172 174 178 184 179 184 178 179 186 173 195 198 188 181 180 179 185 180 186
166 165 164 159 159 167 169 163 162 164 160 159 158 154 163 161 160 157 155 163 160 156 159 162 183 176 178 181 182 176 172 173 185 192 191 181 183 182 176 185 181 188
165 160 162 162 162 168 170 164 160 159 162 161 159 158 167 169 158 160 160 159 160 156 154 154 167 176 173 185 185 185 179 173 187 182 186 177 178 174 178 172 174 180
168 154 152 163 163 167 167 163 158 159 163 165 159 163 165 163 158 164 159 162 161 158 150 154 148 154 167 180 180 186 187 179 176 182 186 183 172 173 156 161 170 173
154 148 146 154 159 164 163 161 157 159 164 166 161 167 162 159 164 162 162 163 164 167 156 155 152 154 155 156 146 161 165 171 180 168 175 175 167 140 141 145 144 158
33 60 148 165 164 164 163 162 160 162 166 169 166 165 160 166 164 165 166 159 171 167 161 160 154 154 163 164 157 154 151 152 158 158 165 158 156 160 153 138 144 137
91 71 34 16 157 160 160 161 163 164 170 168 166 160 162 162 161 159 163 164 163 163 159 162 158 163 150 157 162 164 158 159 160 163 156 152 162 156 146 138 155 139
139 136 131 82 66 111 141 158 161 166 169 163 163 159 160 159 156 152 148 153 144 164 151 150 151 160 162 166 178 157 164 163 170 178 180 163 165 165 147 156 150 167
125 118 113 102 92 91 103 127 153 160 159 158 157 153 155 150 148 145 147 142 145 146 151 152 167 164 81 353 169 176 168 180 185 189 194 190 188 187 175 179 186 171
121 123 124 117 103 91 84 96 124 137 148 151 150 143 143 143 144 143 142 142 141 129 114 114 71 50 4 355 355 350 209 187 182 205 206 203 207 194 192 199 193 183
102 99 97 104 103 92 80 69 60 68 109 120 117 122 125 134 143 148 149 144 134 127 107 76 51 26 353 355 353 343 326 253 206 197 202 211 209 206 200 193 193 194
107 93 79 58 75 97 90 75 57 49 54 74 94 103 110 118 127 126 121 113 99 89 76 67 61 14 357 360 1 352 334 310 200 195 186 213 213 208 203 198 193 194
94 93 85 74 61 64 87 95 79 60 56 64 71 78 93 108 117 115 108 98 94 91 82 70 62 20 6 6 9 0 350 319 238 172 211 195 212 238 262 217 196 189
71 71 76 77 68 60 58 80 83 72 62 65 63 74 87 91 95 95 93 92 90 89 80 63 49 11 11 14 14 357 351 324 280 132 247 214 209 213 214 225 218 225
80 81 74 73 77 67 66 71 75 73 58 43 73 66 80 89 92 91 88 92 92 90 86 71 49 15 22 19 17 2 341 298 238 197 204 177 163 173 222 225 224 229
87 88 88 89 89 94 86 78 76 77 87 84 89 92 86 87 83 82 86 90 96 96 93 81 55 28 23 23 16 7 326 258 182 218 211 209 167 144 231 199 237 249
59 79 93 95 98 94 89 90 94 97 95 97 94 91 88 79 77 76 75 82 91 101 98 85 67 32 27 25 19 3 346 42 350 288 10 316 15 16 236 240 290 351
69 67 67 73 76 79 80 81 84 87 89 92 100 101 92 86 82 72 69 66 65 72 81 94 78 48 31 31 21 9 341 359 353 47 8 336 267 291 315 270 71 39
68 67 69 71 70 66 63 64 58 57 65 76 84 98 98 96 97 100 92 80 72 70 37 68 87 72 42 30 24 17 357 351 4 1 328 37 318 275 273 293 123 89
58 60 62 65 70 70 64 60 58 58 50 72 80 72 79 87 91 91 97 90 76 65 59 53 60 64 54 33 24 13 4 342 12 359 4 341 293 301 286 236 212 135